Showing default

COSMOS 1931, 18944

Orbit data source: Space-Track

COSMOS 1931, 18944 is a payload satellite owned by UNKS (CIS) in LEO that was launched on Fri, 11 Mar 1988 UTC via a KOSMOS 11K65M launch vehicle from the Plesetsk Missile And Space Complex (PKMTR). Payload-class satellites include a variety of spacecraft equipped with specific instruments for various scientific and technological missions. These include communications satellites like Starlink; space stations such as the ISS; scientific satellites like the Hubble; Earth observation satellites from companies like Planet Labs, Umbra, and HawkEye 360; GPS; miniature CubeSats for education and research; and military/defense satellites.

Loading next visibility...
Identifier
18944, 1988-016H
Orbit
LEO
Country
Flag of CISCIS
Related business
Manufacturer
NPO PM
Mission
Defense Communications
Bus & Motor
STRELA-1 11F625, Unknown motor
Mass
60 kg wet, 60 kg dry
Launch date (UTC)
1988-03-11 (38 years ago)
Launch vehicle
KOSMOS 11K65M
Launch site
Plesetsk Missile And Space Complex (PKMTR)
Object type
Payload
Rocket body
Debris
Shape & HBR
Sphere, 0.4 m
Radar Cross Section
0.588 m², Medium (>0.1 m² and < 1m²)

Expand to show TLE details & history
Last TLE update: 17 hours ago

TLE from 17 hours ago
0 COSMOS 1931
1 18944U 88016H   25348.91367444 -.00000029  00000-0 -70126-4 0  9992
2 18944  74.0069 253.7328 0040983 295.2053 137.7642 12.58574430734940
Epoch: 2025-12-14T21:55Z
TLE epoch observation values (Epoch: 2025-12-14T21:55:41.471Z)
Latitude
67.11177°
Longitude
-116.51136°
Altitude
1,463.833 km
Speed
7.126 km/s
True Right ascension
19h 44m 55s
True Declination
66° 59' 58"
Sunlit
Object was in daylight at epoch
Visualization orbit readout
Latitude
Unknown
Longitude
Unknown
Altitude
Unknown
Speed
Unknown
Apparent Right ascension
Unknown
Apparent Declination
Unknown
Sunlit
N/A
Visualization observer readout
Local Sidereal Time
13:18:46
Azimuth
Unknown
Elevation
Unknown
Doppler factor
Unknown
Orbital elements
Apogee altitude
1,458.647 km
Perigee altitude
1,394.675 km
Semi-major axis
7,804.798 km
Eccentricity
0.0041
Inclination
74.0069°
RAAN
253.7328°
Arg. of periapsis
295.2053°
True anomaly
138.07868°
Mean anomaly
137.7642°
Eccentric anomaly
137.92156°
Mean motion
3.14775 °/min
Orbital period
114.37 mins
BSTAR
-0.000070126
Loading maneuver chart data...
Computing Atmospheric mass density...
Loading historical data...
Loading historical data...
Loading historical data...
Loading historical data...
Loading historical data...
Loading historical data...
Loading historical data...

Documentation

Showing up to 5 results
|